Temperature
18 18 18 18 18 18 18 18 18 18 18 18 18 18 18 18 18 18 19 19 19 19 19 19 19 19 19 19 19 19 19 19 19 18 18 18 18 18 18 18 18 18 18
19 18 18 18 18 18 18 18 18 18 18 18 18 18 18 18 18 18 18 18 18 19 19 19 19 19 19 19 19 19 19 18 18 18 18 18 18 18 18 18 18 18 18
18 18 18 18 18 18 18 18 18 18 18 18 18 18 18 18 18 18 18 18 18 18 18 18 18 18 18 18 18 18 18 18 18 18 18 18 18 18 18 18 18 18 18
18 18 18 18 18 18 18 18 18 18 18 18 18 17 17 17 17 18 18 18 18 18 18 18 18 18 18 18 18 18 18 18 18 18 18 18 18 18 18 18 18 18 18
18 18 18 18 18 18 17 17 17 17 17 17 17 17 17 17 17 17 17 17 17 17 18 18 18 18 18 18 18 18 18 18 18 18 18 18 18 18 18 18 18 18 18
18 18 18 18 18 17 17 17 17 17 17 17 17 17 17 17 17 17 17 17 17 17 17 17 17 17 18 18 18 18 18 18 18 18 18 18 18 18 18 18 18 18 18
18 18 18 18 17 17 17 17 17 17 17 17 16 16 16 16 16 16 17 17 17 17 17 17 17 17 17 17 17 17 18 18 18 18 18 18 18 18 18 18 18 18 18
18 18 18 17 17 17 17 17 16 16 16 16 16 16 16 16 16 16 16 16 16 16 17 17 17 17 17 17 17 17 17 17 18 18 18 18 18 18 18 18 18 18 18
18 18 17 17 17 17 16 16 16 16 16 15 15 15 15 15 15 15 16 16 16 16 16 16 16 17 17 17 17 17 17 17 17 17 18 17 17 18 18 18 18 18 18
18 18 17 17 17 17 16 16 16 15 15 15 15 15 15 15 15 15 15 15 15 15 16 16 16 16 16 16 17 17 17 17 17 17 17 17 17 17 18 18 18 18 18
18 18 17 17 17 16 16 16 16 15 15 15 15 15 15 15 15 15 15 15 15 15 15 15 15 16 16 16 16 16 17 17 17 17 17 17 17 18 18 18 18 18 18
18 18 17 17 17 17 16 16 16 15 15 15 15 15 15 15 14 14 15 15 15 15 15 15 15 15 16 16 16 16 16 17 17 17 17 17 17 17 18 18 18 17 18
18 18 18 17 17 17 16 16 16 15 15 15 15 15 14 14 14 14 14 14 14 15 15 15 15 15 15 16 16 16 16 16 17 17 17 17 17 17 17 17 17 17 17
19 18 18 18 17 17 16 16 16 15 15 15 15 14 14 14 14 14 14 14 14 14 14 15 15 15 15 15 15 16 16 16 16 17 17 17 17 17 17 17 17 17 17
19 18 18 18 17 17 16 16 16 15 15 15 14 14 14 14 14 14 14 14 14 14 14 14 14 15 15 15 15 15 16 16 16 16 17 17 17 17 17 17 17 17 17
19 18 18 18 17 17 16 16 16 15 15 15 14 14 14 14 14 14 14 14 14 14 14 14 14 14 14 15 15 15 16 16 16 16 17 17 17 17 17 17 17 17 17
19 19 18 18 17 17 16 16 15 15 15 14 14 14 14 14 13 13 13 13 13 13 14 14 14 14 14 14 15 15 15 16 16 16 16 17 17 17 17 17 17 17 17
19 19 18 18 17 17 16 16 15 15 15 14 14 14 13 13 13 13 13 13 13 13 13 13 14 14 14 14 15 15 15 15 16 16 16 16 17 17 17 17 17 17 17
19 19 18 18 17 17 16 16 15 15 14 14 14 13 13 13 13 13 13 13 13 13 13 13 13 14 14 14 14 15 15 15 15 16 16 16 16 16 17 17 17 17 17
19 19 18 18 17 17 16 16 15 15 14 14 14 13 13 13 13 13 13 13 13 13 13 13 13 13 14 14 14 15 15 15 15 15 16 16 16 16 16 17 17 17 17
19 19 18 18 17 17 16 16 15 15 14 14 14 13 13 13 13 13 13 13 13 13 13 13 13 13 14 14 14 14 14 15 15 15 15 16 16 16 16 16 16 16 16
20 19 19 18 17 17 16 16 15 15 14 14 14 13 13 13 13 13 13 13 13 13 13 13 13 13 13 13 14 14 14 14 15 15 15 15 16 16 16 16 16 16 16
20 19 19 18 17 17 16 16 15 15 14 14 14 13 13 13 13 13 13 13 13 12 13 13 13 13 13 13 13 14 14 14 15 15 15 15 15 16 16 16 16 16 16
20 19 19 18 17 17 16 16 15 15 14 14 14 13 13 13 13 13 13 13 12 12 12 12 13 13 13 13 13 14 14 14 14 14 15 15 15 15 16 16 16 16 16
20 19 19 18 17 17 16 16 15 15 14 14 14 13 13 13 13 13 13 12 12 12 12 12 13 13 13 13 13 13 14 14 14 14 14 15 15 15 15 16 16 16 16
20 19 19 18 17 17 16 16 15 15 14 14 14 14 13 13 13 13 13 13 13 12 12 12 12 13 13 13 13 13 13 14 14 14 14 14 14 15 15 15 15 16 16
Wind_Speed
2 3 7 8 8 8 8 8 8 8 7 7 6 6 6 6 6 6 5 5 5 5 4 4 5 5 5 6 6 6 5 5 5 5 4 4 4 4 4 5 6 5 6
4 5 8 8 8 8 8 7 7 6 6 5 5 4 4 4 4 4 3 3 4 3 3 3 3 3 3 4 4 4 4 4 4 4 4 3 3 3 3 4 5 4 6
6 6 8 8 8 8 7 7 6 5 5 5 4 3 3 3 2 2 2 2 2 2 2 2 2 2 1 2 2 3 3 3 3 4 4 3 2 2 2 3 4 5 5
6 6 7 8 7 7 7 6 6 5 5 4 3 3 2 1 1 1 0 1 1 2 2 1 1 1 1 1 1 1 1 2 2 3 3 2 1 0 2 3 4 4 5
6 6 7 8 7 7 6 5 5 4 4 3 2 2 2 2 2 2 2 2 2 2 2 2 2 2 2 2 1 0 0 1 1 3 3 2 1 1 2 3 3 4 4
5 6 7 8 7 6 6 5 4 3 2 2 2 2 2 2 3 3 3 3 3 3 3 3 3 3 3 3 2 2 1 1 1 2 1 1 1 3 3 4 4 4 4
5 5 6 8 7 6 5 5 4 3 2 2 2 3 3 3 3 4 4 4 4 4 4 4 4 4 4 4 4 3 3 2 0 0 1 1 3 4 4 4 5 5 4
6 5 5 7 6 5 4 4 2 2 2 2 3 3 4 4 4 4 5 5 5 5 5 5 5 5 5 5 5 4 4 3 1 0 1 2 4 4 5 5 5 5 5
5 4 3 4 4 4 3 2 1 1 2 2 3 4 4 4 4 5 5 5 6 6 6 6 5 5 6 6 6 5 4 3 1 1 2 2 4 5 5 6 6 6 6
3 3 2 2 2 1 1 1 0 1 2 3 4 4 5 6 6 6 6 6 6 5 6 6 6 5 5 6 6 5 4 2 1 2 2 4 5 6 6 7 7 7 6
3 2 2 2 2 2 2 1 1 2 3 4 5 6 6 6 6 6 6 6 5 6 5 6 5 5 5 5 5 4 3 1 2 3 4 5 6 6 7 7 8 7 7
6 4 3 3 2 2 1 1 1 2 4 4 4 5 5 5 5 5 7 7 6 6 5 5 5 4 3 3 4 3 1 2 2 3 4 6 6 6 7 7 8 9 8
6 5 5 4 3 2 1 1 1 2 3 3 4 4 4 4 5 6 6 6 7 6 5 5 5 4 2 1 2 2 2 2 2 3 4 6 6 6 6 7 8 9 9
6 5 5 5 3 2 2 1 1 1 1 2 3 3 3 2 3 3 3 4 4 4 4 3 2 3 3 2 2 2 2 2 2 3 5 6 5 4 5 7 9 9 10
6 6 5 5 4 3 2 1 1 1 1 1 2 3 2 1 1 2 2 3 4 4 3 2 2 2 2 2 2 2 2 3 3 4 4 5 5 4 4 6 8 9 10
8 7 5 5 4 4 3 2 1 1 1 2 2 2 2 2 1 1 2 2 3 3 3 2 2 2 2 2 2 2 2 3 3 4 4 4 4 4 3 5 6 7 9
8 6 6 6 5 4 3 2 2 2 2 1 2 2 2 2 1 1 1 2 3 4 3 2 2 1 2 2 2 2 2 2 2 2 2 2 3 3 3 4 5 6 7
7 7 7 6 6 4 3 2 2 2 2 1 1 2 3 2 2 1 1 2 3 3 2 2 1 1 2 2 2 2 1 1 1 2 1 1 2 2 3 4 4 6 6
9 8 7 6 6 5 4 3 2 2 1 1 1 2 2 3 2 1 1 2 3 2 2 2 1 1 1 2 2 1 1 1 1 1 1 1 2 2 3 3 3 4 6
7 7 7 6 5 5 4 3 2 2 1 1 1 2 2 3 3 2 1 2 2 2 2 2 1 1 1 1 1 1 2 2 1 1 1 1 1 2 3 2 2 2 4
7 7 7 7 5 4 3 2 2 0 1 1 2 2 3 3 3 2 1 2 2 2 2 2 1 1 2 1 1 2 3 2 2 1 1 1 1 1 1 2 2 2 3
9 8 8 7 7 5 3 2 2 2 1 1 2 2 3 3 3 2 1 1 2 1 2 2 1 1 1 2 2 2 2 3 3 2 2 1 1 1 0 1 2 3 3
9 10 9 8 7 6 4 3 3 2 2 2 2 2 3 3 3 2 2 1 1 1 2 2 1 0 1 1 1 2 2 1 2 2 2 2 2 1 1 0 1 2 3
10 9 8 8 7 6 5 4 4 3 2 2 2 2 3 3 3 3 2 2 1 1 2 2 0 0 1 0 1 1 1 2 1 1 2 2 2 2 2 1 0 1 2
8 8 8 7 7 6 5 6 5 3 2 1 1 2 3 3 3 3 2 1 1 1 1 2 1 0 1 1 1 0 1 1 1 2 1 2 3 2 2 2 1 0 1
7 7 7 8 7 6 6 5 6 5 4 2 1 2 2 3 3 3 2 1 1 1 1 1 1 0 0 1 1 1 1 1 1 1 1 0 1 2 2 2 1 1 0
Wind_Direction
181 182 163 147 138 130 121 118 116 112 110 111 114 115 117 120 119 121 124 121 114 110 109 106 101 98 92 90 90 88 84 80 78 75 76 82 89 93 102 99 87 71 69
151 159 158 148 140 131 121 118 116 112 107 105 107 110 112 115 118 123 126 128 122 117 120 120 114 105 98 95 92 90 86 81 74 69 67 69 76 98 106 112 102 90 78
132 144 148 143 135 128 121 118 114 109 103 100 96 98 100 102 106 119 141 155 154 150 156 148 149 140 116 99 90 86 83 77 67 57 58 50 33 113 121 130 122 105 89
133 136 143 142 135 128 125 120 112 105 98 93 88 83 80 74 60 39 303 255 230 209 211 217 219 205 197 171 109 81 74 69 60 51 50 24 349 154 154 148 138 121 101
126 133 147 141 134 130 125 118 111 102 94 82 71 54 36 13 359 339 311 290 276 260 253 248 253 250 240 232 224 211 309 2 46 51 42 17 335 264 180 167 155 138 118
128 135 149 141 135 132 127 121 113 101 85 59 29 10 350 333 324 319 311 301 290 282 275 265 259 259 260 249 249 250 266 287 31 46 19 340 277 252 205 187 174 156 136
138 141 150 143 138 136 133 129 121 105 79 45 20 6 356 336 322 316 304 295 292 291 287 279 268 265 264 266 259 263 272 269 123 68 329 289 266 248 212 195 190 171 153
146 144 151 154 151 150 148 139 127 100 59 27 9 358 352 341 330 316 309 295 288 289 290 283 277 268 264 264 262 260 270 266 245 116 288 271 266 248 220 203 194 181 168
141 138 152 163 163 163 163 153 125 70 35 20 5 357 348 343 340 333 319 307 293 286 286 284 283 272 263 265 266 264 263 272 201 206 262 266 273 255 230 210 199 191 178
142 154 167 169 162 144 161 191 179 26 22 16 7 1 358 360 354 343 336 321 304 295 289 288 287 281 274 273 274 268 262 265 236 231 249 261 269 255 234 215 201 195 183
180 187 179 179 188 189 216 265 359 10 13 13 8 6 11 9 1 350 344 339 325 316 306 300 300 294 289 288 284 280 278 243 244 240 247 261 265 251 235 217 204 195 189
201 204 196 191 196 197 215 87 16 13 15 11 8 11 16 19 9 5 1 1 357 351 343 333 327 324 316 315 304 297 283 252 243 245 250 263 264 248 236 219 206 198 195
201 200 191 189 186 176 166 105 36 22 20 14 15 19 27 28 20 19 16 11 8 8 2 352 359 356 352 320 299 284 247 234 245 254 264 270 268 252 233 219 211 203 200
192 198 188 179 172 173 158 135 106 65 36 23 13 24 45 35 17 13 14 4 4 357 349 346 347 341 331 307 271 264 254 239 242 255 267 272 271 261 234 216 209 205 203
192 192 183 171 170 166 152 168 123 114 90 57 36 31 69 74 22 14 7 8 358 352 346 331 331 332 324 313 290 261 257 246 240 247 262 279 282 275 246 220 211 210 208
194 189 177 172 169 158 160 162 149 131 119 75 58 42 64 79 59 28 6 356 348 342 334 322 310 312 308 305 304 287 261 245 238 245 253 276 289 284 266 232 216 216 215
189 179 174 173 163 161 161 163 144 141 126 87 60 51 48 53 46 40 10 347 329 332 336 337 324 324 316 319 305 295 263 245 230 235 244 255 279 281 275 250 225 218 218
177 174 180 171 156 158 152 143 126 120 115 89 58 38 23 26 39 46 12 338 335 341 345 332 337 323 319 322 309 299 288 266 241 235 235 245 257 268 278 274 244 222 219
179 174 168 153 151 148 133 112 98 88 80 58 37 16 5 9 14 31 353 327 342 349 346 327 356 297 302 320 303 303 317 306 286 283 275 248 251 250 258 273 262 230 216
170 164 158 149 146 133 110 89 65 52 25 19 6 344 354 359 1 8 345 339 351 359 348 341 330 329 292 305 325 13 348 339 342 337 292 273 263 255 243 251 246 236 215
161 163 166 160 157 144 127 126 122 178 302 318 314 329 343 345 351 358 342 340 349 355 329 325 322 347 356 355 45 20 360 2 13 352 332 5 327 279 241 218 211 206 214
175 176 175 173 170 171 162 152 155 157 223 265 298 326 334 338 338 330 325 323 332 336 347 352 7 7 0 30 85 82 18 359 352 360 7 20 326 309 276 229 201 195 202
184 185 185 182 178 176 158 122 88 61 30 6 335 321 321 327 333 334 320 310 322 329 321 318 335 81 14 2 49 121 130 218 312 337 357 8 347 359 352 337 186 186 193
193 184 179 178 177 174 162 160 153 156 191 240 260 285 306 325 332 332 324 314 316 318 315 307 44 183 140 3 356 35 123 159 151 343 339 352 0 14 360 349 325 197 187
183 178 176 173 178 176 175 172 161 168 197 237 279 300 313 321 324 326 325 321 327 311 301 319 358 89 150 168 160 91 64 61 86 132 345 341 355 356 358 345 344 15 172
176 174 171 174 185 182 181 176 177 182 188 201 264 290 301 309 311 317 318 314 309 300 295 294 300 134 132 145 141 140 144 136 154 135 152 346 341 326 337 351 5 353 64
Height
1512 1513 1515 1516 1517 1518 1519 1520 1520 1521 1522 1523 1523 1524 1524 1525 1525 1525 1525 1526 1526 1526 1526 1526 1526 1526 1525 1525 1525 1525 1525 1525 1524 1524 1524 1524 1524 1524 1524 1524 1524 1523 1523
1512 1514 1515 1516 1518 1519 1519 1520 1521 1522 1522 1523 1523 1524 1524 1524 1525 1525 1525 1526 1526 1526 1526 1526 1526 1526 1526 1525 1525 1525 1525 1525 1525 1525 1525 1525 1525 1525 1525 1525 1525 1524 1524
1513 1514 1516 1517 1518 1519 1520 1520 1521 1522 1522 1523 1523 1523 1524 1524 1524 1525 1525 1525 1526 1526 1526 1526 1526 1526 1526 1526 1526 1525 1526 1526 1526 1526 1526 1526 1526 1526 1526 1526 1526 1526 1525
1514 1515 1516 1517 1518 1519 1520 1520 1521 1521 1522 1522 1522 1523 1523 1524 1524 1524 1524 1524 1525 1525 1525 1525 1525 1525 1525 1525 1525 1526 1526 1526 1526 1526 1526 1526 1526 1526 1526 1526 1526 1526 1526
1515 1516 1517 1518 1518 1519 1520 1520 1520 1521 1521 1522 1522 1522 1522 1522 1523 1523 1523 1523 1524 1524 1524 1524 1524 1525 1525 1525 1525 1525 1525 1526 1526 1526 1526 1526 1526 1526 1527 1527 1527 1527 1527
1516 1517 1518 1518 1519 1519 1520 1520 1520 1520 1521 1521 1521 1521 1521 1521 1522 1522 1522 1522 1522 1522 1523 1523 1523 1523 1524 1524 1524 1525 1525 1525 1525 1526 1526 1526 1527 1527 1527 1527 1527 1528 1528
1516 1517 1518 1519 1519 1520 1520 1520 1520 1520 1520 1520 1520 1520 1520 1520 1520 1520 1520 1520 1521 1521 1521 1521 1522 1522 1522 1523 1523 1524 1524 1525 1525 1526 1526 1526 1527 1527 1527 1527 1528 1528 1528
1517 1518 1519 1519 1520 1520 1520 1520 1520 1520 1520 1519 1519 1519 1519 1519 1519 1519 1519 1519 1519 1519 1519 1519 1520 1520 1520 1521 1522 1522 1523 1523 1524 1525 1525 1526 1526 1527 1527 1527 1528 1528 1529
1518 1519 1520 1520 1520 1520 1520 1520 1520 1520 1519 1519 1519 1519 1518 1518 1518 1518 1518 1517 1517 1517 1517 1518 1518 1518 1518 1519 1520 1520 1521 1522 1523 1524 1524 1525 1526 1526 1527 1527 1528 1528 1529
1519 1520 1520 1520 1520 1520 1520 1520 1520 1520 1519 1519 1519 1518 1518 1517 1517 1517 1517 1516 1516 1516 1516 1516 1516 1516 1516 1517 1517 1518 1519 1520 1521 1522 1523 1524 1525 1526 1526 1527 1528 1528 1529
1519 1520 1520 1520 1521 1521 1521 1520 1520 1520 1519 1519 1519 1518 1518 1517 1517 1516 1516 1516 1515 1515 1515 1514 1514 1514 1514 1515 1515 1516 1517 1518 1520 1521 1522 1523 1524 1525 1526 1526 1527 1528 1529
1518 1519 1520 1520 1521 1521 1521 1520 1520 1520 1519 1519 1518 1518 1517 1517 1516 1515 1515 1515 1514 1514 1513 1513 1513 1512 1512 1513 1513 1514 1515 1516 1518 1519 1520 1521 1523 1524 1525 1525 1526 1527 1528
1518 1519 1520 1520 1520 1521 1520 1520 1520 1519 1519 1518 1518 1517 1516 1516 1515 1515 1514 1513 1513 1512 1512 1512 1511 1511 1511 1511 1511 1512 1513 1515 1516 1517 1518 1520 1521 1522 1523 1524 1525 1527 1528
1517 1518 1519 1520 1520 1520 1520 1520 1519 1519 1518 1518 1517 1516 1516 1515 1514 1513 1513 1512 1511 1511 1510 1510 1510 1509 1509 1510 1510 1511 1512 1513 1514 1515 1517 1518 1519 1521 1522 1523 1524 1526 1527
1517 1518 1519 1519 1519 1520 1520 1519 1519 1518 1518 1517 1516 1515 1515 1514 1513 1512 1511 1511 1510 1509 1509 1508 1508 1508 1508 1508 1508 1509 1510 1511 1512 1514 1515 1516 1518 1519 1520 1522 1523 1524 1526
1516 1517 1518 1519 1519 1519 1519 1519 1518 1518 1517 1516 1515 1515 1514 1513 1512 1511 1510 1509 1508 1508 1507 1507 1506 1506 1506 1506 1506 1507 1508 1509 1510 1512 1513 1515 1516 1517 1519 1520 1522 1523 1524
1515 1516 1517 1518 1518 1518 1518 1518 1518 1517 1517 1516 1515 1514 1513 1512 1511 1510 1509 1508 1507 1506 1505 1505 1504 1504 1504 1504 1505 1505 1506 1507 1508 1510 1511 1513 1514 1516 1517 1519 1520 1522 1523
1514 1516 1517 1517 1518 1518 1518 1518 1517 1517 1516 1515 1514 1513 1512 1511 1510 1509 1508 1507 1506 1505 1504 1503 1503 1503 1503 1503 1503 1504 1504 1505 1506 1508 1509 1511 1513 1514 1516 1517 1519 1520 1522
1513 1515 1516 1516 1517 1517 1517 1517 1517 1516 1515 1514 1513 1512 1511 1510 1509 1508 1507 1506 1505 1504 1503 1502 1502 1501 1501 1501 1502 1502 1503 1504 1505 1506 1507 1509 1511 1512 1514 1515 1517 1518 1520
1512 1514 1515 1516 1516 1516 1516 1516 1516 1515 1515 1514 1513 1512 1510 1509 1508 1507 1506 1505 1504 1503 1502 1501 1500 1500 1500 1500 1501 1501 1501 1502 1503 1504 1506 1507 1509 1510 1512 1514 1515 1517 1518
1511 1512 1514 1514 1515 1515 1515 1515 1515 1515 1514 1513 1512 1511 1510 1509 1508 1506 1505 1504 1503 1502 1501 1500 1500 1499 1499 1500 1500 1500 1501 1501 1502 1503 1504 1506 1507 1509 1510 1512 1513 1515 1517
1509 1510 1512 1513 1513 1514 1514 1514 1514 1514 1513 1513 1512 1511 1510 1509 1507 1506 1505 1504 1502 1501 1500 1500 1499 1499 1499 1499 1500 1500 1501 1502 1502 1502 1503 1504 1506 1507 1508 1510 1512 1514 1515
1506 1508 1510 1511 1512 1513 1513 1513 1513 1513 1512 1512 1511 1510 1509 1508 1507 1506 1504 1503 1502 1501 1500 1499 1499 1498 1498 1499 1499 1500 1500 1500 1501 1502 1502 1503 1504 1506 1507 1508 1510 1512 1513
1504 1507 1509 1510 1511 1512 1512 1512 1512 1512 1512 1511 1511 1510 1509 1508 1507 1506 1504 1503 1502 1501 1500 1499 1499 1498 1498 1498 1499 1499 1500 1500 1501 1501 1502 1502 1503 1504 1505 1507 1508 1510 1511
1503 1505 1507 1508 1509 1510 1511 1511 1511 1511 1511 1510 1510 1509 1508 1508 1507 1505 1504 1503 1502 1501 1500 1499 1498 1498 1498 1498 1498 1499 1499 1500 1500 1500 1500 1501 1502 1503 1504 1505 1507 1508 1510
1501 1503 1505 1507 1508 1509 1509 1510 1510 1510 1510 1509 1509 1509 1508 1507 1506 1505 1504 1503 1502 1501 1500 1499 1498 1498 1498 1498 1498 1498 1499 1499 1499 1500 1500 1500 1501 1502 1503 1504 1505 1506 1508